McCall, ID

3:04 AM MST on January 23, 2018 (GMT -0700)
McCall

Weather History for KMYL - October, 2010

Change the Weather History Date:

Sunday, October 24, 2010

  Actual Average Record
Temperature  
Mean Temperature 39 °F 38 °F  
Max Temperature 46 °F 51 °F 74 °F (1927)
Min Temperature 32 °F 24 °F 10 °F (1975)
Degree Days  
Heating Degree Days 26 28  
Month to date heating degree days 368 577  
Since 1 July heating degree days 979 1342  
Cooling Degree Days 0 0  
Month to date cooling degree days 467 0  
Year to date cooling degree days 508 25  
Moisture  
Dew Point 37 °F    
Average Humidity 81    
Maximum Humidity 92    
Minimum Humidity 70    
Precipitation  
Precipitation T in 0.06 in 0.83 in (1996)
Month to date precipitation 0.68 0.97  
Year to date precipitation 16.71 14.89  
Sea Level Pressure  
Sea Level Pressure 29.59 in    
Wind  
Wind Speed 9 mph (SSE)    
Max Wind Speed 13 mph    
Max Gust Speed 20 mph    
Visibility 10 miles    
Events Rain    
T = Trace of Precipitation, MM = Missing Value Source: NWS Daily Summary

Daily Weather History Graph

Daily Weather History Graph

Search for Another Location

Airport or City:

Trip Planner

Search our weather history database for the weather conditions in past years. The results will help you decide how hot, cold, wet, or windy it might be!

Date:

Astronomy

Oct. 24, 2010 Rise Set
Actual Time 8:11 AM MDT 6:44 PM MDT
Civil Twilight 7:41 AM MDT 7:14 PM MDT
Nautical Twilight 7:07 AM MDT 7:48 PM MDT
Astronomical Twilight 6:33 AM MDT 8:22 PM MDT
Moon 7:21 PM MDT (10/24) 10:06 AM MDT (10/24)
Length of Visible Light 11h 32m
Length of Day
10h 32m
Full, 97% of the Moon is Illuminated
Oct 24
Full
Oct 30
Last Quarter
Nov 5
New
Nov 13
First Quarter
Nov 21
Full

Hourly Weather History & Observations

Time (MDT) Temp. Windchill Dew Point Humidity Pressure Visibility Wind Dir Wind Speed Gust Speed Precip Events Conditions
12:25 AM 39.2 °F 34.2 °F 37.4 °F 93% 29.81 in 8.0 mi SE 6.9 mph - 0.01 in Rain Light Rain
12:51 AM 39.9 °F 34.5 °F 37.9 °F 93% 29.79 in 10.0 mi ESE 8.1 mph - 0.02 in Rain Light Rain
1:51 AM 39.9 °F 33.9 °F 37.0 °F 89% 29.76 in 10.0 mi SSE 9.2 mph - 0.01 in Rain Light Rain
2:51 AM 39.9 °F 31.8 °F 37.9 °F 93% 29.75 in 10.0 mi SSE 15.0 mph 21.9 mph 0.04 in Rain Light Rain
3:51 AM 39.9 °F 31.4 °F 37.9 °F 93% 29.71 in 9.0 mi SSE 16.1 mph 23.0 mph 0.05 in Rain Light Rain
4:51 AM 39.0 °F 31.0 °F 37.0 °F 93% 29.69 in 9.0 mi SSE 13.8 mph 23.0 mph 0.07 in Rain Light Rain
5:16 AM 39.2 °F 31.2 °F 35.6 °F 87% 29.67 in 10.0 mi SSE 13.8 mph 23.0 mph 0.01 in Rain Light Rain
5:51 AM 39.0 °F 30.6 °F 36.0 °F 89% 29.67 in 10.0 mi SSE 15.0 mph 25.3 mph 0.03 in Rain Light Rain
6:51 AM 37.0 °F 27.7 °F 35.1 °F 93% 29.65 in 8.0 mi SE 16.1 mph 25.3 mph 0.07 in Rain Light Rain
7:51 AM 37.0 °F 29.8 °F 35.1 °F 93% 29.62 in 10.0 mi SE 10.4 mph - 0.09 in Rain Light Rain
8:51 AM 37.0 °F 30.4 °F 36.0 °F 96% 29.59 in 9.0 mi SSE 9.2 mph - 0.03 in Rain Light Rain
9:51 AM 39.9 °F 35.8 °F 37.9 °F 93% 29.56 in 10.0 mi South 5.8 mph - 0.06 in Rain Light Rain
10:51 AM 42.1 °F 37.7 °F 39.9 °F 92% 29.50 in 9.0 mi SE 6.9 mph - 0.06 in Rain Light Rain
10:59 AM 42.8 °F 37.5 °F 39.2 °F 87% 29.50 in 9.0 mi SE 9.2 mph - 0.01 in Rain Light Rain
11:51 AM 44.1 °F - 41.0 °F 89% 29.46 in 10.0 mi Calm Calm - 0.04 in Rain Light Rain
12:51 PM 46.0 °F 40.2 °F 41.0 °F 83% 29.47 in 10.0 mi SSW 12.7 mph 21.9 mph 0.03 in Rain Light Rain
1:15 PM 44.6 °F 38.8 °F 41.0 °F 87% 29.48 in 8.0 mi SSW 11.5 mph - 0.01 in Rain Light Rain
1:51 PM 45.0 °F 37.9 °F 39.9 °F 82% 29.45 in 10.0 mi SW 16.1 mph 23.0 mph 0.02 in Rain Light Rain
2:24 PM 44.6 °F 40.2 °F 41.0 °F 87% 29.42 in 10.0 mi SSW 8.1 mph - 0.01 in Rain Light Rain
2:51 PM 46.0 °F 42.5 °F 41.0 °F 83% 29.39 in 10.0 mi SSW 6.9 mph 20.7 mph 0.02 in Rain Light Rain
8:51 PM 36.0 °F 33.3 °F 33.1 °F 89% 29.52 in 10.0 mi East 3.5 mph - 0.09 in   Overcast
9:51 PM 36.0 °F 28.5 °F 30.9 °F 82% 29.52 in 10.0 mi SSE 10.4 mph - N/A   Mostly Cloudy
10:51 PM 35.1 °F 30.1 °F 30.9 °F 85% 29.54 in 10.0 mi South 5.8 mph - N/A   Scattered Clouds
11:51 PM 35.1 °F - 27.0 °F 72% 29.56 in 10.0 mi Calm Calm - N/A   Scattered Clouds